When you browse on this site, cookies collect data to enhance your experience and personalize the content and advertising you see.
Visit our Privacy Policy to learn more. By continuing to use the site, you agree to this use of cookies and data.
  • In Österreich
  • Länderverzeichnis
  • Für 7 Tage
  • Wassertemperatur
  • Wetterkarte
  • News
  • Widgets
  • user-avatar
    Anmelden

    Stündliche Wetter Phohan

    Heute, 3 April, Freitag

    Zeit Temperatur Niederschläge Wind Luftdruck Luftfeuchtigkeit
    00:00 +9°C° 0 mm 3 m/S 761 mmHg 50%
    01:00 +9°C° 0 mm 3 m/S 761 mmHg 51%
    02:00 +9°C° 0 mm 3 m/S 761 mmHg 51%
    03:00 +9°C° 0 mm 3 m/S 762 mmHg 53%
    04:00 +8°C° 0 mm 3 m/S 761 mmHg 52%
    05:00 +8°C° 0 mm 3 m/S 761 mmHg 50%
    06:00 +7°C° 0 mm 3 m/S 761 mmHg 49%
    07:00 +9°C° 0 mm 3 m/S 761 mmHg 43%
    08:00 +11°C° 0 mm 3 m/S 761 mmHg 36%
    09:00 +13°C° 0 mm 4 m/S 762 mmHg 27%
    10:00 +14°C° 0 mm 3 m/S 761 mmHg 25%
    11:00 +16°C° 0 mm 3 m/S 761 mmHg 23%
    12:00 +18°C° 0 mm 3 m/S 761 mmHg 21%
    13:00 +18°C° 0 mm 3 m/S 760 mmHg 21%
    14:00 +19°C° 0 mm 3 m/S 760 mmHg 22%
    15:00 +19°C° 0 mm 3 m/S 759 mmHg 22%
    16:00 +18°C° 0 mm 3 m/S 759 mmHg 27%
    17:00 +17°C° 0 mm 3 m/S 759 mmHg 32%
    18:00 +16°C° 0 mm 3 m/S 759 mmHg 36%
    19:00 +14°C° 0 mm 3 m/S 760 mmHg 39%
    20:00 +12°C° 0 mm 3 m/S 760 mmHg 41%
    21:00 +10°C° 0 mm 3 m/S 760 mmHg 43%
    22:00 +10°C° 0 mm 3 m/S 760 mmHg 45%
    23:00 +8°C° 0 mm 4 m/S 760 mmHg 46%

    Morgen, 4 April, Samstag

    Zeit Temperatur Niederschläge Wind Luftdruck Luftfeuchtigkeit
    00:00 +7°C° 0 mm 4 m/S 760 mmHg 48%
    01:00 +7°C° 0 mm 4 m/S 760 mmHg 49%
    02:00 +6°C° 0 mm 4 m/S 759 mmHg 50%
    03:00 +6°C° 0 mm 4 m/S 759 mmHg 50%
    04:00 +7°C° 0 mm 3 m/S 759 mmHg 51%
    05:00 +5°C° 0 mm 3 m/S 759 mmHg 52%
    06:00 +5°C° 0 mm 3 m/S 759 mmHg 52%
    07:00 +7°C° 0 mm 4 m/S 759 mmHg 47%
    08:00 +9°C° 0 mm 5 m/S 759 mmHg 43%
    09:00 +12°C° 0 mm 5 m/S 759 mmHg 38%
    10:00 +13°C° 0 mm 5 m/S 759 mmHg 38%
    11:00 +15°C° 0 mm 6 m/S 758 mmHg 37%
    12:00 +16°C° 0 mm 6 m/S 758 mmHg 36%
    13:00 +16°C° 0 mm 5 m/S 758 mmHg 32%
    14:00 +15°C° 0 mm 5 m/S 758 mmHg 28%
    15:00 +15°C° 0 mm 5 m/S 758 mmHg 24%
    16:00 +14°C° 0 mm 5 m/S 758 mmHg 29%
    17:00 +12°C° 0 mm 4 m/S 759 mmHg 34%
    18:00 +11°C° 0 mm 4 m/S 759 mmHg 39%
    19:00 +8°C° 0 mm 4 m/S 760 mmHg 44%
    20:00 +8°C° 0 mm 3 m/S 760 mmHg 48%
    21:00 +5°C° 0 mm 3 m/S 761 mmHg 53%
    22:00 +4°C° 0 mm 3 m/S 761 mmHg 47%
    23:00 +4°C° 0 mm 3 m/S 762 mmHg 42%

    übermorgen, 5 April, Sonntag

    Zeit Temperatur Niederschläge Wind Luftdruck Luftfeuchtigkeit
    00:00 +3°C° 0 mm 3 m/S 762 mmHg 36%
    01:00 +2°C° 0 mm 3 m/S 762 mmHg 37%
    02:00 +2°C° 0 mm 3 m/S 762 mmHg 38%
    03:00 0°C° 0 mm 4 m/S 761 mmHg 38%
    04:00 0°C° 0 mm 4 m/S 762 mmHg 39%
    05:00 0°C° 0 mm 4 m/S 762 mmHg 39%
    06:00 -1°C° 0 mm 4 m/S 762 mmHg 39%
    07:00 +1°C° 0 mm 4 m/S 762 mmHg 35%
    08:00 +4°C° 0 mm 3 m/S 762 mmHg 31%
    09:00 +7°C° 0 mm 3 m/S 762 mmHg 27%
    10:00 +8°C° 0 mm 3 m/S 762 mmHg 25%
    11:00 +10°C° 0 mm 3 m/S 762 mmHg 22%
    12:00 +12°C° 0 mm 3 m/S 762 mmHg 20%
    13:00 +14°C° 0 mm 2 m/S 761 mmHg 20%
    14:00 +14°C° 0 mm 2 m/S 761 mmHg 20%
    15:00 +15°C° 0 mm 2 m/S 761 mmHg 20%
    16:00 +14°C° 0 mm 2 m/S 761 mmHg 24%
    17:00 +13°C° 0 mm 2 m/S 761 mmHg 29%
    18:00 +10°C° 0 mm 2 m/S 761 mmHg 34%
    19:00 +9°C° 0 mm 2 m/S 762 mmHg 38%
    20:00 +8°C° 0 mm 1 m/S 762 mmHg 42%
    21:00 +7°C° 0 mm 1 m/S 762 mmHg 46%
    22:00 +7°C° 0 mm 1 m/S 762 mmHg 47%
    23:00 +6°C° 0 mm 1 m/S 762 mmHg 48%

    6 April, Montag

    Zeit Temperatur Niederschläge Wind Luftdruck Luftfeuchtigkeit
    00:00 +6°C° 0 mm 1 m/S 763 mmHg 49%
    01:00 +4°C° 0 mm 2 m/S 762 mmHg 49%
    02:00 +4°C° 0 mm 2 m/S 762 mmHg 49%
    03:00 +4°C° 0 mm 2 m/S 762 mmHg 50%
    04:00 +4°C° 0 mm 2 m/S 762 mmHg 49%
    05:00 +3°C° 0 mm 2 m/S 762 mmHg 49%
    06:00 +3°C° 0 mm 2 m/S 762 mmHg 49%
    07:00 +5°C° 0 mm 2 m/S 762 mmHg 43%
    08:00 +8°C° 0 mm 2 m/S 762 mmHg 37%
    09:00 +10°C° 0 mm 2 m/S 762 mmHg 31%
    10:00 +13°C° 0 mm 2 m/S 762 mmHg 28%
    11:00 +14°C° 0 mm 3 m/S 762 mmHg 25%
    12:00 +16°C° 0 mm 3 m/S 761 mmHg 22%
    13:00 +17°C° 0 mm 3 m/S 761 mmHg 23%
    14:00 +17°C° 0 mm 3 m/S 760 mmHg 23%
    15:00 +18°C° 0 mm 4 m/S 760 mmHg 24%
    16:00 +17°C° 0 mm 3 m/S 760 mmHg 29%
    17:00 +16°C° 0 mm 3 m/S 760 mmHg 33%
    18:00 +16°C° 0 mm 3 m/S 760 mmHg 38%
    19:00 +13°C° 0 mm 3 m/S 760 mmHg 41%
    20:00 +12°C° 0 mm 3 m/S 760 mmHg 43%
    21:00 +10°C° 0 mm 3 m/S 760 mmHg 46%
    22:00 +10°C° 0 mm 3 m/S 760 mmHg 49%
    23:00 +9°C° 0 mm 3 m/S 760 mmHg 51%

    7 April, Dienstag

    Zeit Temperatur Niederschläge Wind Luftdruck Luftfeuchtigkeit
    00:00 +8°C° 0 mm 3 m/S 760 mmHg 53%
    01:00 +8°C° 0 mm 3 m/S 760 mmHg 54%
    02:00 +7°C° 0 mm 3 m/S 759 mmHg 55%
    03:00 +7°C° 0 mm 3 m/S 759 mmHg 55%
    04:00 +7°C° 0 mm 3 m/S 759 mmHg 55%
    05:00 +7°C° 0 mm 3 m/S 759 mmHg 54%
    06:00 +5°C° 0 mm 3 m/S 759 mmHg 54%
    07:00 +9°C° 0 mm 3 m/S 759 mmHg 49%
    08:00 +11°C° 0 mm 4 m/S 759 mmHg 44%
    09:00 +13°C° 0 mm 4 m/S 759 mmHg 39%
    10:00 +15°C° 0 mm 4 m/S 759 mmHg 35%
    11:00 +18°C° 0 mm 3 m/S 759 mmHg 31%
    12:00 +19°C° 0 mm 3 m/S 759 mmHg 27%
    13:00 +20°C° 0 mm 3 m/S 758 mmHg 26%
    14:00 +20°C° 0 mm 3 m/S 758 mmHg 26%
    15:00 +21°C° 0 mm 3 m/S 758 mmHg 25%
    16:00 +20°C° 0 mm 3 m/S 758 mmHg 28%
    17:00 +19°C° 0 mm 3 m/S 757 mmHg 31%
    18:00 +18°C° 0 mm 3 m/S 757 mmHg 34%
    19:00 +16°C° 0 mm 3 m/S 758 mmHg 38%
    20:00 +13°C° 0 mm 3 m/S 758 mmHg 41%
    21:00 +12°C° 0 mm 3 m/S 758 mmHg 45%
    22:00 +11°C° 0 mm 4 m/S 758 mmHg 47%
    23:00 +10°C° 0 mm 4 m/S 758 mmHg 49%

    8 April, Mittwoch

    Zeit Temperatur Niederschläge Wind Luftdruck Luftfeuchtigkeit
    00:00 +10°C° 0 mm 4 m/S 758 mmHg 51%
    01:00 +8°C° 0 mm 4 m/S 758 mmHg 54%
    02:00 +9°C° 0 mm 3 m/S 758 mmHg 57%
    03:00 +8°C° 0 mm 3 m/S 758 mmHg 61%
    04:00 +8°C° 0 mm 3 m/S 758 mmHg 62%
    05:00 +7°C° 0 mm 3 m/S 758 mmHg 64%
    06:00 +7°C° 0 mm 3 m/S 758 mmHg 65%
    07:00 +7°C° 0 mm 4 m/S 759 mmHg 55%
    08:00 +10°C° 0 mm 4 m/S 759 mmHg 44%
    09:00 +10°C° 0 mm 5 m/S 759 mmHg 33%
    10:00 +12°C° 0 mm 5 m/S 759 mmHg 30%
    11:00 +13°C° 0 mm 5 m/S 759 mmHg 27%
    12:00 +14°C° 0 mm 5 m/S 758 mmHg 24%
    13:00 +15°C° 0 mm 5 m/S 758 mmHg 22%
    14:00 +15°C° 0 mm 5 m/S 758 mmHg 21%
    15:00 +15°C° 0 mm 5 m/S 758 mmHg 20%
    16:00 +15°C° 0 mm 5 m/S 758 mmHg 23%
    17:00 +14°C° 0 mm 4 m/S 758 mmHg 26%
    18:00 +13°C° 0 mm 4 m/S 759 mmHg 29%
    19:00 +11°C° 0 mm 4 m/S 759 mmHg 34%
    20:00 +10°C° 0 mm 4 m/S 760 mmHg 39%
    21:00 +7°C° 0 mm 4 m/S 760 mmHg 45%
    22:00 +6°C° 0 mm 4 m/S 760 mmHg 50%
    23:00 +7°C° 0 mm 3 m/S 760 mmHg 56%
    Mehr zeigen